Time,TemperatureF,DewpointF,PressureIn,WindDirection,WindDirectionDegrees,WindSpeedMPH,WindSpeedGustMPH,Humidity,HourlyPrecipIn,Conditions,Clouds,dailyrainin,SoftwareType,DateUTC
2013-05-05 00:02:00,54.0,36.0,30.02,ENE,77,0.0,0.0,50,0.00,,,0.00,,2013-05-05 05:02:00,
2013-05-05 00:12:00,54.0,36.0,30.02,ENE,77,0.0,0.0,50,0.00,,,0.00,,2013-05-05 05:12:00,
2013-05-05 00:21:00,55.0,37.0,30.02,East,79,0.0,0.0,50,0.00,,,0.00,,2013-05-05 05:21:00,
2013-05-05 00:31:00,54.0,37.0,30.02,East,79,0.0,0.0,52,0.00,,,0.00,,2013-05-05 05:31:00,
2013-05-05 00:42:00,54.0,37.0,30.02,East,79,0.0,0.0,52,0.00,,,0.00,,2013-05-05 05:42:00,
2013-05-05 00:52:00,54.0,36.0,30.03,East,79,0.0,0.0,51,0.00,,,0.00,,2013-05-05 05:52:00,
2013-05-05 01:01:00,52.0,37.0,30.03,East,79,0.0,0.0,56,0.00,,,0.00,,2013-05-05 06:01:00,
2013-05-05 01:12:00,52.0,37.0,30.03,East,79,0.0,0.0,56,0.00,,,0.00,,2013-05-05 06:12:00,
2013-05-05 01:21:00,51.0,36.0,30.04,East,79,0.0,0.0,56,0.00,,,0.00,,2013-05-05 06:21:00,
2013-05-05 01:32:00,51.0,36.0,30.04,East,79,0.0,0.0,57,0.00,,,0.00,,2013-05-05 06:32:00,
2013-05-05 01:42:00,51.0,36.0,30.04,East,79,0.0,0.0,57,0.00,,,0.00,,2013-05-05 06:42:00,
2013-05-05 01:52:00,51.0,37.0,30.04,East,79,0.0,0.0,58,0.00,,,0.00,,2013-05-05 06:52:00,
2013-05-05 02:01:00,49.0,36.0,30.05,East,79,0.0,0.0,60,0.00,,,0.00,,2013-05-05 07:01:00,
2013-05-05 02:11:00,49.0,36.0,30.05,East,79,0.0,0.0,60,0.00,,,0.00,,2013-05-05 07:11:00,
2013-05-05 02:21:00,48.0,36.0,30.05,East,79,0.0,0.0,63,0.00,,,0.00,,2013-05-05 07:21:00,
2013-05-05 02:32:00,49.0,36.0,30.05,East,79,0.0,0.0,60,0.00,,,0.00,,2013-05-05 07:32:00,
2013-05-05 02:42:00,49.0,36.0,30.05,East,79,0.0,0.0,60,0.00,,,0.00,,2013-05-05 07:42:00,
2013-05-05 02:52:00,47.0,35.0,30.05,East,79,0.0,0.0,62,0.00,,,0.00,,2013-05-05 07:52:00,
2013-05-05 03:02:00,46.0,34.0,30.05,East,79,0.0,0.0,63,0.00,,,0.00,,2013-05-05 08:02:00,
2013-05-05 03:11:00,46.0,34.0,30.05,East,79,0.0,0.0,63,0.00,,,0.00,,2013-05-05 08:11:00,
2013-05-05 03:21:00,47.0,35.0,30.05,East,79,0.0,0.0,62,0.00,,,0.00,,2013-05-05 08:21:00,
2013-05-05 03:31:00,47.0,34.0,30.05,NNW,338,0.0,0.0,61,0.00,,,0.00,,2013-05-05 08:31:00,
2013-05-05 03:42:00,47.0,34.0,30.05,NNW,338,0.0,0.0,61,0.00,,,0.00,,2013-05-05 08:42:00,
2013-05-05 03:53:00,46.0,34.0,30.05,NNW,338,0.0,0.0,62,0.00,,,0.00,,2013-05-05 08:53:00,
2013-05-05 04:01:00,46.0,35.0,30.06,NNW,338,0.0,0.0,64,0.00,,,0.00,,2013-05-05 09:01:00,
2013-05-05 04:11:00,46.0,35.0,30.06,NNW,338,0.0,0.0,64,0.00,,,0.00,,2013-05-05 09:11:00,
2013-05-05 04:21:00,46.0,34.0,30.07,North,6,0.0,0.0,63,0.00,,,0.00,,2013-05-05 09:21:00,
2013-05-05 04:32:00,46.0,34.0,30.08,NNE,28,0.0,0.0,63,0.00,,,0.00,,2013-05-05 09:32:00,
2013-05-05 04:42:00,46.0,34.0,30.08,NNE,28,0.0,0.0,63,0.00,,,0.00,,2013-05-05 09:42:00,
2013-05-05 04:52:00,44.0,33.0,30.08,South,180,0.0,0.0,64,0.00,,,0.00,,2013-05-05 09:52:00,
2013-05-05 05:02:00,44.0,33.0,30.09,South,180,0.0,0.0,65,0.00,,,0.00,,2013-05-05 10:02:00,
2013-05-05 05:12:00,44.0,33.0,30.09,South,180,0.0,0.0,65,0.00,,,0.00,,2013-05-05 10:12:00,
2013-05-05 05:22:00,44.0,33.0,30.09,South,180,0.0,0.0,66,0.00,,,0.00,,2013-05-05 10:22:00,
2013-05-05 05:32:00,43.0,33.0,30.10,North,359,3.0,3.0,68,0.00,,,0.00,,2013-05-05 10:32:00,
2013-05-05 05:42:00,43.0,33.0,30.10,North,359,3.0,3.0,68,0.00,,,0.00,,2013-05-05 10:42:00,
2013-05-05 05:53:00,43.0,34.0,30.11,NNE,15,3.0,4.0,70,0.00,,,0.00,,2013-05-05 10:53:00,
2013-05-05 06:01:00,42.0,33.0,30.11,North,359,2.0,3.0,71,0.00,,,0.00,,2013-05-05 11:01:00,
2013-05-05 06:12:00,42.0,33.0,30.11,North,359,2.0,3.0,71,0.00,,,0.00,,2013-05-05 11:12:00,
2013-05-05 06:21:00,42.0,33.0,30.12,North,6,4.0,4.0,71,0.00,,,0.00,,2013-05-05 11:21:00,
2013-05-05 06:32:00,42.0,33.0,30.12,NE,34,0.0,0.0,71,0.00,,,0.00,,2013-05-05 11:32:00,
2013-05-05 06:42:00,42.0,33.0,30.12,NE,34,0.0,0.0,71,0.00,,,0.00,,2013-05-05 11:42:00,
2013-05-05 06:52:00,41.0,32.0,30.13,NNE,30,3.0,3.0,70,0.00,,,0.00,,2013-05-05 11:52:00,
2013-05-05 07:02:00,42.0,32.0,30.14,NNE,17,3.0,3.0,68,0.00,,,0.00,,2013-05-05 12:02:00,
2013-05-05 07:11:00,42.0,32.0,30.14,NNE,17,3.0,3.0,68,0.00,,,0.00,,2013-05-05 12:11:00,
2013-05-05 07:21:00,41.0,31.0,30.15,NNE,13,3.0,3.0,68,0.00,,,0.00,,2013-05-05 12:21:00,
2013-05-05 07:32:00,43.0,32.0,30.16,NNW,340,1.0,0.0,66,0.00,,,0.00,,2013-05-05 12:32:00,
2013-05-05 07:42:00,43.0,32.0,30.16,NNW,340,1.0,0.0,66,0.00,,,0.00,,2013-05-05 12:42:00,
2013-05-05 07:52:00,46.0,34.0,30.18,NNW,340,0.0,0.0,63,0.00,,,0.00,,2013-05-05 12:52:00,
2013-05-05 08:01:00,47.0,35.0,30.19,NW,325,4.0,4.0,62,0.00,,,0.00,,2013-05-05 13:01:00,
2013-05-05 08:11:00,47.0,35.0,30.19,NW,325,4.0,4.0,62,0.00,,,0.00,,2013-05-05 13:11:00,
2013-05-05 08:21:00,50.0,36.0,30.20,NNE,15,0.0,0.0,58,0.00,,,0.00,,2013-05-05 13:21:00,
2013-05-05 08:32:00,52.0,37.0,30.20,North,6,4.0,4.0,56,0.00,,,0.00,,2013-05-05 13:32:00,
2013-05-05 08:42:00,52.0,37.0,30.20,North,6,4.0,4.0,56,0.00,,,0.00,,2013-05-05 13:42:00,
2013-05-05 08:52:00,54.0,38.0,30.20,North,4,4.0,4.0,55,0.00,,,0.00,,2013-05-05 13:52:00,
2013-05-05 09:01:00,55.0,39.0,30.21,North,352,4.0,4.0,54,0.00,,,0.00,,2013-05-05 14:01:00,
2013-05-05 09:11:00,56.0,40.0,30.21,ENE,75,6.0,6.0,55,0.00,,,0.00,,2013-05-05 14:11:00,
2013-05-05 09:21:00,56.0,40.0,30.21,ENE,75,6.0,6.0,55,0.00,,,0.00,,2013-05-05 14:21:00,
2013-05-05 09:31:00,57.0,41.0,30.21,ENE,73,6.0,7.0,55,0.00,,,0.00,,2013-05-05 14:31:00,
2013-05-05 09:42:00,57.0,41.0,30.21,ENE,73,6.0,7.0,55,0.00,,,0.00,,2013-05-05 14:42:00,
2013-05-05 09:52:00,58.0,42.0,30.21,North,349,3.0,5.0,56,0.00,,,0.00,,2013-05-05 14:52:00,
2013-05-05 10:01:00,59.0,43.0,30.21,North,6,7.0,7.0,55,0.00,,,0.00,,2013-05-05 15:01:00,
2013-05-05 10:11:00,59.0,43.0,30.21,North,6,7.0,7.0,55,0.00,,,0.00,,2013-05-05 15:11:00,
2013-05-05 10:21:00,60.0,44.0,30.21,NE,34,5.0,5.0,56,0.00,,,0.00,,2013-05-05 15:21:00,
2013-05-05 10:33:00,61.0,43.0,30.20,NNE,21,7.0,7.0,52,0.00,,,0.00,,2013-05-05 15:33:00,
2013-05-05 10:43:00,61.0,43.0,30.20,NNE,21,7.0,7.0,52,0.00,,,0.00,,2013-05-05 15:43:00,
2013-05-05 10:53:00,62.0,44.0,30.20,NNE,13,6.0,8.0,52,0.00,,,0.00,,2013-05-05 15:53:00,
2013-05-05 11:03:00,63.0,44.0,30.20,NNE,15,6.0,6.0,50,0.00,,,0.00,,2013-05-05 16:03:00,
2013-05-05 11:12:00,63.0,44.0,30.20,NNE,15,6.0,6.0,50,0.00,,,0.00,,2013-05-05 16:12:00,
2013-05-05 11:22:00,63.0,44.0,30.20,NNW,345,6.0,8.0,50,0.00,,,0.00,,2013-05-05 16:22:00,
2013-05-05 11:32:00,64.0,45.0,30.20,NW,326,9.0,11.0,50,0.00,,,0.00,,2013-05-05 16:32:00,
2013-05-05 11:42:00,64.0,45.0,30.20,NW,326,9.0,11.0,50,0.00,,,0.00,,2013-05-05 16:42:00,
2013-05-05 11:53:00,65.0,45.0,30.19,NNW,330,9.0,9.0,48,0.00,,,0.00,,2013-05-05 16:53:00,
2013-05-05 12:02:00,66.0,46.0,30.19,North,359,5.0,6.0,48,0.00,,,0.00,,2013-05-05 17:02:00,
2013-05-05 12:12:00,66.0,46.0,30.19,North,359,5.0,6.0,48,0.00,,,0.00,,2013-05-05 17:12:00,
2013-05-05 12:23:00,67.0,45.0,30.19,NNW,342,6.0,6.0,45,0.00,,,0.00,,2013-05-05 17:23:00,
2013-05-05 12:32:00,68.0,44.0,30.18,North,352,12.0,12.0,42,0.00,,,0.00,,2013-05-05 17:32:00,
2013-05-05 12:42:00,68.0,44.0,30.18,North,352,12.0,12.0,42,0.00,,,0.00,,2013-05-05 17:42:00,
2013-05-05 12:52:00,68.0,45.0,30.17,NE,42,9.0,9.0,43,0.00,,,0.00,,2013-05-05 17:52:00,
2013-05-05 13:01:00,69.0,44.0,30.16,NNE,14,11.0,12.0,40,0.00,,,0.00,,2013-05-05 18:01:00,
2013-05-05 13:12:00,69.0,44.0,30.16,NNE,14,11.0,12.0,40,0.00,,,0.00,,2013-05-05 18:12:00,
2013-05-05 13:21:00,70.0,45.0,30.15,East,84,6.0,6.0,40,0.00,,,0.00,,2013-05-05 18:21:00,
2013-05-05 13:32:00,71.0,45.0,30.15,North,359,8.0,9.0,39,0.00,,,0.00,,2013-05-05 18:32:00,
2013-05-05 13:42:00,71.0,45.0,30.15,North,359,8.0,9.0,39,0.00,,,0.00,,2013-05-05 18:42:00,
2013-05-05 13:52:00,71.0,45.0,30.14,SSE,148,4.0,4.0,40,0.00,,,0.00,,2013-05-05 18:52:00,
2013-05-05 14:01:00,73.0,46.0,30.13,NNE,32,2.0,4.0,38,0.00,,,0.00,,2013-05-05 19:01:00,
2013-05-05 14:11:00,73.0,46.0,30.13,NNE,32,2.0,4.0,38,0.00,,,0.00,,2013-05-05 19:11:00,
2013-05-05 14:21:00,74.0,45.0,30.11,North,1,9.0,12.0,35,0.00,,,0.00,,2013-05-05 19:21:00,
2013-05-05 14:32:00,75.0,45.0,30.11,NW,304,1.0,0.0,35,0.00,,,0.00,,2013-05-05 19:32:00,
2013-05-05 14:42:00,75.0,45.0,30.11,NW,304,1.0,0.0,35,0.00,,,0.00,,2013-05-05 19:42:00,
2013-05-05 14:52:00,76.0,46.0,30.10,NW,321,6.0,6.0,34,0.00,,,0.00,,2013-05-05 19:52:00,
2013-05-05 15:01:00,75.0,44.0,30.10,WNW,300,7.0,7.0,33,0.00,,,0.00,,2013-05-05 20:01:00,
2013-05-05 15:11:00,75.0,44.0,30.10,WNW,300,7.0,7.0,33,0.00,,,0.00,,2013-05-05 20:11:00,
2013-05-05 15:21:00,76.0,45.0,30.09,ESE,103,4.0,4.0,33,0.00,,,0.00,,2013-05-05 20:21:00,
2013-05-05 15:31:00,76.0,45.0,30.08,NNW,329,11.0,11.0,33,0.00,,,0.00,,2013-05-05 20:31:00,
2013-05-05 15:41:00,76.0,45.0,30.08,NNW,329,11.0,11.0,33,0.00,,,0.00,,2013-05-05 20:41:00,
2013-05-05 15:52:00,77.0,44.0,30.07,NNW,328,5.0,8.0,31,0.00,,,0.00,,2013-05-05 20:52:00,
2013-05-05 16:01:00,79.0,45.0,30.06,ESE,103,3.0,4.0,30,0.00,,,0.00,,2013-05-05 21:01:00,
2013-05-05 16:11:00,79.0,45.0,30.06,ESE,103,3.0,4.0,30,0.00,,,0.00,,2013-05-05 21:11:00,
2013-05-05 16:21:00,79.0,43.0,30.05,NE,37,9.0,9.0,28,0.00,,,0.00,,2013-05-05 21:21:00,
2013-05-05 16:33:00,78.0,44.0,30.04,NNE,17,3.0,6.0,30,0.00,,,0.00,,2013-05-05 21:33:00,
2013-05-05 16:42:00,78.0,44.0,30.04,NNE,17,3.0,6.0,30,0.00,,,0.00,,2013-05-05 21:42:00,
2013-05-05 16:53:00,78.0,42.0,30.03,NNE,20,9.0,9.0,28,0.00,,,0.00,,2013-05-05 21:53:00,
2013-05-05 17:02:00,79.0,42.0,30.03,NW,322,7.0,7.0,27,0.00,,,0.00,,2013-05-05 22:02:00,
2013-05-05 17:12:00,79.0,42.0,30.03,NW,322,7.0,7.0,27,0.00,,,0.00,,2013-05-05 22:12:00,
2013-05-05 17:22:00,79.0,42.0,30.02,North,4,7.0,9.0,27,0.00,,,0.00,,2013-05-05 22:22:00,
2013-05-05 17:33:00,79.0,42.0,30.02,WNW,294,8.0,8.0,27,0.00,,,0.00,,2013-05-05 22:33:00,
2013-05-05 17:42:00,79.0,42.0,30.02,WNW,294,8.0,8.0,27,0.00,,,0.00,,2013-05-05 22:42:00,
2013-05-05 17:52:00,80.0,43.0,30.02,NNE,23,6.0,7.0,27,0.00,,,0.00,,2013-05-05 22:52:00,
2013-05-05 18:02:00,80.0,43.0,30.02,ENE,59,2.0,3.0,27,0.00,,,0.00,,2013-05-05 23:02:00,
2013-05-05 18:11:00,80.0,43.0,30.02,ENE,59,2.0,3.0,27,0.00,,,0.00,,2013-05-05 23:11:00,
2013-05-05 18:21:00,78.0,43.0,30.01,NNW,347,1.0,0.0,29,0.00,,,0.00,,2013-05-05 23:21:00,
2013-05-05 18:32:00,78.0,43.0,30.01,East,89,4.0,4.0,29,0.00,,,0.00,,2013-05-05 23:32:00,
2013-05-05 18:42:00,78.0,43.0,30.01,East,89,4.0,4.0,29,0.00,,,0.00,,2013-05-05 23:42:00,
2013-05-05 18:52:00,78.0,44.0,30.01,NNE,31,4.0,5.0,30,0.00,,,0.00,,2013-05-05 23:52:00,
2013-05-05 19:01:00,77.0,43.0,30.01,NE,42,6.0,6.0,30,0.00,,,0.00,,2013-05-06 00:01:00,
2013-05-05 19:11:00,77.0,43.0,30.01,NE,42,6.0,6.0,30,0.00,,,0.00,,2013-05-06 00:11:00,
2013-05-05 19:21:00,75.0,44.0,30.01,NE,49,6.0,6.0,33,0.00,,,0.00,,2013-05-06 00:21:00,
2013-05-05 19:31:00,75.0,44.0,30.01,East,100,5.0,7.0,33,0.00,,,0.00,,2013-05-06 00:31:00,
2013-05-05 19:41:00,75.0,44.0,30.01,East,100,5.0,7.0,33,0.00,,,0.00,,2013-05-06 00:41:00,
2013-05-05 19:52:00,75.0,43.0,30.01,ENE,59,6.0,6.0,32,0.00,,,0.00,,2013-05-06 00:52:00,
2013-05-05 20:01:00,74.0,44.0,30.01,ENE,72,2.0,2.0,34,0.00,,,0.00,,2013-05-06 01:01:00,
2013-05-05 20:11:00,74.0,44.0,30.01,ENE,72,2.0,2.0,34,0.00,,,0.00,,2013-05-06 01:11:00,
2013-05-05 20:21:00,72.0,44.0,30.01,ENE,65,3.0,4.0,37,0.00,,,0.00,,2013-05-06 01:21:00,
2013-05-05 20:31:00,69.0,44.0,30.01,NE,56,0.0,0.0,41,0.00,,,0.00,,2013-05-06 01:31:00,
2013-05-05 20:41:00,69.0,44.0,30.01,NE,56,0.0,0.0,41,0.00,,,0.00,,2013-05-06 01:41:00,
2013-05-05 20:52:00,67.0,44.0,30.02,NE,48,3.0,3.0,44,0.00,,,0.00,,2013-05-06 01:52:00,
2013-05-05 21:01:00,65.0,44.0,30.02,ESE,110,3.0,5.0,46,0.00,,,0.00,,2013-05-06 02:01:00,
2013-05-05 21:12:00,65.0,44.0,30.02,ESE,110,3.0,5.0,46,0.00,,,0.00,,2013-05-06 02:12:00,
2013-05-05 21:21:00,64.0,44.0,30.03,East,94,3.0,3.0,48,0.00,,,0.00,,2013-05-06 02:21:00,
2013-05-05 21:32:00,63.0,44.0,30.03,ENE,77,0.0,0.0,50,0.00,,,0.00,,2013-05-06 02:32:00,
2013-05-05 21:42:00,63.0,44.0,30.03,ENE,77,0.0,0.0,50,0.00,,,0.00,,2013-05-06 02:42:00,
2013-05-05 21:52:00,61.0,43.0,30.05,ENE,77,0.0,0.0,52,0.00,,,0.00,,2013-05-06 02:52:00,
2013-05-05 22:01:00,60.0,43.0,30.05,ESE,107,4.0,4.0,53,0.00,,,0.00,,2013-05-06 03:01:00,
2013-05-05 22:11:00,60.0,43.0,30.05,ESE,107,4.0,4.0,53,0.00,,,0.00,,2013-05-06 03:11:00,
2013-05-05 22:22:00,60.0,43.0,30.06,SE,128,4.0,4.0,53,0.00,,,0.00,,2013-05-06 03:22:00,
2013-05-05 22:33:00,59.0,43.0,30.06,SE,132,4.0,5.0,55,0.00,,,0.00,,2013-05-06 03:33:00,
2013-05-05 22:42:00,59.0,43.0,30.06,SE,132,4.0,5.0,55,0.00,,,0.00,,2013-05-06 03:42:00,
2013-05-05 22:52:00,59.0,44.0,30.07,ESE,117,3.0,3.0,57,0.00,,,0.00,,2013-05-06 03:52:00,
2013-05-05 23:02:00,58.0,44.0,30.07,SE,127,3.0,3.0,59,0.00,,,0.00,,2013-05-06 04:02:00,
2013-05-05 23:12:00,58.0,44.0,30.07,SE,127,3.0,3.0,59,0.00,,,0.00,,2013-05-06 04:12:00,
2013-05-05 23:23:00,57.0,43.0,30.07,SE,125,3.0,3.0,60,0.00,,,0.00,,2013-05-06 04:23:00,
2013-05-05 23:32:00,57.0,44.0,30.08,East,101,4.0,6.0,61,0.00,,,0.00,,2013-05-06 04:32:00,
2013-05-05 23:42:00,57.0,44.0,30.08,East,101,4.0,6.0,61,0.00,,,0.00,,2013-05-06 04:42:00,
2013-05-05 23:53:00,57.0,45.0,30.08,ESE,122,4.0,4.0,64,0.00,,,0.00,,2013-05-06 04:53:00,